Overview Statistics Trail Chart Weather Telemetry Raw packets
 

This is the latest recevied weather packets stored in our database for station/object EA1GGY-1. If no packets are shown the sender has not sent any weather packets the latest 10 day(s).

<< 6 7 8 9 10 11 12 >>
Time Temp. Humidity Pressure Rain* Wind** Luminosity Snow
1788494439 16.11° C 60% 1021.2 hPa - - - -
1788493838 16.67° C 60% 1021.3 hPa - - - -
1788493237 16.11° C 61% 1021.3 hPa - - - -
1788492636 16.67° C 61% 1021.2 hPa - - - -
1788492035 16.67° C 60% 1021.2 hPa - - - -
1788491435 16.11° C 63% 1021.3 hPa - - - -
1788490834 17.22° C 60% 1021.3 hPa - - - -
1788490233 16.67° C 62% 1021.4 hPa - - - -
1788489632 17.22° C 60% 1021.4 hPa - - - -
1788489031 16.67° C 63% 1021.4 hPa - - - -
1788488431 17.22° C 61% 1021.4 hPa - - - -
1788487830 17.22° C 61% 1021.4 hPa - - - -
1788487229 17.22° C 61% 1021.5 hPa - - - -
1788486628 17.22° C 61% 1021.7 hPa - - - -
1788486027 16.67° C 61% 1021.6 hPa - - - -
1788485427 17.78° C 59% 1021.8 hPa - - - -
1788484825 17.78° C 58% 1021.7 hPa - - - -
1788484224 16.67° C 63% 1021.8 hPa - - - -
1788483623 17.78° C 58% 1021.9 hPa - - - -
1788483023 17.78° C 59% 1021.9 hPa - - - -
1788482422 17.22° C 60% 1021.9 hPa - - - -
1788481821 17.22° C 60% 1022 hPa - - - -
1788481220 17.78° C 60% 1022 hPa - - - -
1788480619 17.78° C 60% 1022 hPa - - - -
1788480019 17.78° C 58% 1021.9 hPa - - - -

* Rain since midnight (hover to see other rain measurements)
** Current wind speed in m/s (hover to see current wind gust speed)